Lid_Strength_Index
3 3 4 5 5 6 9 10 9 4 6 10 11 11 9 8 9 8 9 8 9 11 11 11 11 12 10 8 9 11 11 13 15 14 11 10 11 13 14 16 16 15 16 15
3 3 4 5 6 6 9 12 9 4 7 12 12 10 9 9 9 9 10 10 8 9 11 13 10 9 8 8 9 12 11 14 16 15 13 11 12 11 14 14 14 15 16 14
3 3 4 5 6 6 9 11 10 9 8 9 11 11 10 10 7 9 8 9 8 9 11 10 11 10 8 8 8 5 8 14 15 17 15 13 12 11 11 15 16 15 14 12
2 3 4 5 5 6 9 9 9 10 12 10 11 10 9 10 10 8 8 9 9 11 12 11 11 10 10 8 6 9 11 15 13 12 12 11 12 11 11 14 14 14 13 12
3 4 4 5 6 6 9 10 11 9 11 10 10 10 11 9 9 10 10 10 8 9 11 11 12 11 12 12 10 11 11 14 13 13 11 11 11 11 10 10 12 13 11 12
3 4 4 5 6 7 9 7 8 9 9 10 10 10 10 8 8 8 7 8 9 10 9 9 10 9 10 11 12 12 13 13 13 15 11 11 14 12 11 12 11 11 13 11
3 5 5 5 5 7 9 7 7 8 10 10 10 7 7 8 8 9 7 7 9 7 7 7 8 10 10 9 10 11 13 14 14 15 14 17 13 8 9 11 11 10 10 10
4 5 5 5 5 6 9 7 6 8 10 8 8 8 9 8 8 8 7 6 7 8 8 11 12 12 11 10 8 10 12 13 15 16 16 13 10 10 10 12 13 9 10 9
5 5 5 5 5 6 8 7 4 7 9 9 6 8 8 10 11 10 8 7 7 7 10 11 17 17 14 14 12 9 12 12 13 15 16 17 13 9 7 8 15 8 8 9
5 5 5 5 4 5 7 7 5 5 8 7 7 8 9 9 10 10 9 8 7 6 12 14 15 15 11 15 15 14 13 14 15 15 15 12 10 8 7 15 14 8 7 8
5 5 5 5 4 4 7 6 4 5 7 6 6 5 7 7 8 10 8 8 9 9 12 14 13 14 12 13 12 14 14 14 15 14 15 16 8 8 13 9 7 7 7 7
6 5 5 5 4 3 3 6 2 3 6 6 5 6 5 5 6 7 8 8 9 8 12 12 12 13 12 12 16 10 15 12 14 13 14 8 7 8 6 6 7 7 7 6
5 5 5 4 4 3 3 5 4 4 7 7 8 8 5 4 4 4 8 8 7 8 7 10 11 13 11 14 13 11 9 9 11 11 9 8 7 6 5 5 6 5 5 5
5 5 4 4 3 2 2 4 3 5 6 9 8 5 6 3 2 3 5 6 6 6 7 10 14 13 9 12 11 11 10 9 11 11 9 8 7 7 6 5 5 5 4 5
5 5 4 4 2 2 3 4 3 5 6 9 8 7 6 4 3 4 4 5 7 8 10 11 12 8 10 10 11 11 9 10 13 12 10 10 9 7 6 6 6 5 5 5
5 4 4 2 2 3 4 6 4 5 5 7 10 8 7 5 4 4 5 5 6 7 10 11 10 9 10 12 16 10 9 8 9 11 8 9 8 7 4 5 6 5 5 4
4 4 3 2 2 4 5 6 5 4 5 7 10 10 8 4 5 6 6 5 6 6 8 10 10 9 10 11 16 10 9 7 7 6 7 8 6 7 5 4 5 4 4 3
4 3 2 3 3 4 5 4 3 4 6 6 10 9 9 7 9 9 6 8 7 7 8 7 9 10 9 12 11 9 7 8 7 5 4 5 4 5 5 4 4 5 5 4
2 3 3 5 5 6 5 1 2 4 5 9 9 11 11 8 9 8 7 7 10 6 8 8 8 10 12 11 9 9 9 10 8 6 5 4 5 5 5 5 4 6 5 4
3 5 6 8 6 2 2 4 7 7 7 7 10 8 10 9 10 9 8 7 10 12 9 7 9 10 9 9 10 10 9 8 6 7 7 6 6 6 6 5 4 4 5 4
6 7 6 3 1 5 5 7 8 8 11 8 8 8 9 6 8 10 8 10 10 13 10 11 11 13 10 9 9 9 9 8 7 6 6 5 5 5 5 4 4 4 4 5
3 3 4 5 6 6 9 10 9 9 10 8 9 8 7 7 5 8 8 10 10 13 8 11 13 11 9 9 8 8 9 7 6 6 6 5 5 5 4 4 4 4 4 4
3 4 5 7 7 11 12 14 12 12 8 7 7 9 8 7 6 8 9 12 12 8 11 13 12 10 7 8 8 8 8 7 6 6 5 5 5 4 4 4 4 4 4 5
6 7 11 10 11 10 10 10 10 8 7 7 7 8 8 7 9 9 12 10 9 13 15 14 11 10 8 8 7 8 7 7 6 6 5 5 5 5 5 4 4 4 5 5
7 7 12 10 7 7 7 6 7 6 5 6 7 7 7 9 10 10 10 12 14 13 14 10 10 9 8 8 7 7 7 7 6 6 6 5 4 5 5 4 4 4 5 6
6 6 9 7 8 8 7 7 7 5 6 6 6 9 10 11 11 12 13 13 14 12 9 8 7 8 8 7 6 5 5 6 6 6 5 5 5 5 5 4 4 5 5 7
7 8 6 6 7 8 7 6 6 5 6 9 9 11 12 9 12 12 10 12 10 8 7 6 7 7 7 6 6 5 5 6 6 7 7 6 5 5 6 6 5 5 5 6